Weather History for Dallas/Ft Worth, TX

Change the Weather History Date:

Monday, April 29, 2013

  Actual Average Record
Temperature  
Mean Temperature 73 °F 69 °F  
Max Temperature 85 °F 79 °F 97 °F (1909)
Min Temperature 60 °F 59 °F 41 °F (1908)
Degree Days  
Heating Degree Days 0 1  
Month to date heating degree days 138 82  
Since 1 July heating degree days 2007 2275  
Cooling Degree Days 8 5  
Month to date cooling degree days 78 94  
Year to date cooling degree days 111 133  
Growing Degree Days 22 (Base 50)    
Moisture  
Dew Point 59 °F    
Average Humidity 64    
Maximum Humidity 90    
Minimum Humidity 37    
Precipitation  
Precipitation 0.00 in 0.13 in 2.76 in (1966)
Month to date precipitation 1.98 2.94  
Year to date precipitation 9.99 11.22  
Snow  
Snow 0.00 in 0.00 in 0.00 in ()
Month to date snowfall 0.0 0.0  
Since 1 July snowfall 0.8 1.2  
Snow Depth 0.00 in    
Sea Level Pressure  
Sea Level Pressure 29.83 in    
Wind  
Wind Speed 11 mph (South)    
Max Wind Speed 22 mph    
Max Gust Speed 26 mph    
Visibility 10 miles    
Events      
T = Trace of Precipitation, MM = Missing Value Source: NWS Daily Summary

Daily Weather History Graph

Daily Weather History Graph

Search for Another Location

Airport:

Trip Planner

Search our weather history database for the weather conditions in past years. The results will help you decide how hot, cold, wet, or windy it might be!

Date:

Astronomy

Apr. 29, 2013 Rise Set
Actual Time 6:42 AM CDT 8:08 PM CDT
Civil Twilight 6:16 AM CDT 8:35 PM CDT
Nautical Twilight 5:45 AM CDT 9:06 PM CDT
Astronomical Twilight 5:12 AM CDT 9:39 PM CDT
Moon No Moon Rise 10:09 AM CDT (4/29)
Length of Visible Light 14h 18m
Length of Day
13h 26m
Waning Gibbous, 80% of the Moon is Illuminated
Apr 29
Waning Gibbous
May 2
Last Quarter
May 9
New
May 17
First Quarter
May 24
Full

Hourly Weather History & Observations

Time (CDT) Temp. Heat Index Dew Point Humidity Pressure Visibility Wind Dir Wind Speed Gust Speed Precip Events Conditions
12:53 AM 71.1 °F - 60.1 °F 68% 29.86 in 10.0 mi SSE 10.4 mph - N/A   Clear
1:53 AM 68.0 °F - 59.0 °F 73% 29.85 in 10.0 mi South 10.4 mph - N/A   Scattered Clouds
2:53 AM 66.0 °F - 59.0 °F 78% 29.84 in 10.0 mi South 10.4 mph - N/A   Scattered Clouds
3:53 AM 63.0 °F - 57.9 °F 84% 29.84 in 10.0 mi South 6.9 mph - N/A   Mostly Cloudy
4:53 AM 63.0 °F - 57.9 °F 84% 29.85 in 10.0 mi South 5.8 mph - N/A   Mostly Cloudy
5:53 AM 62.1 °F - 57.9 °F 86% 29.85 in 10.0 mi South 5.8 mph - N/A   Mostly Cloudy
6:53 AM 61.0 °F - 57.9 °F 90% 29.86 in 10.0 mi Calm Calm - N/A   Mostly Cloudy
7:53 AM 64.9 °F - 61.0 °F 87% 29.87 in 10.0 mi South 9.2 mph - N/A   Scattered Clouds
8:53 AM 69.1 °F - 63.0 °F 81% 29.88 in 10.0 mi South 8.1 mph - N/A   Mostly Cloudy
9:53 AM 73.9 °F - 64.0 °F 71% 29.88 in 10.0 mi South 11.5 mph - N/A   Mostly Cloudy
10:53 AM 78.1 °F - 64.0 °F 62% 29.88 in 10.0 mi South 10.4 mph - N/A   Mostly Cloudy
11:53 AM 80.1 °F 81.2 °F 62.1 °F 54% 29.88 in 10.0 mi South 11.5 mph - N/A   Scattered Clouds
12:53 PM 82.0 °F 83.0 °F 62.1 °F 51% 29.86 in 10.0 mi South 15.0 mph 20.7 mph N/A   Partly Cloudy
1:53 PM 84.0 °F 83.0 °F 55.9 °F 38% 29.84 in 10.0 mi South 17.3 mph 24.2 mph N/A   Scattered Clouds
2:53 PM 84.9 °F 84.2 °F 57.9 °F 40% 29.83 in 10.0 mi South 15.0 mph - N/A   Scattered Clouds
3:53 PM 84.9 °F 83.9 °F 57.0 °F 38% 29.80 in 10.0 mi South 15.0 mph 20.7 mph N/A   Scattered Clouds
4:53 PM 84.0 °F 82.9 °F 55.0 °F 37% 29.78 in 10.0 mi South 16.1 mph - N/A   Scattered Clouds
5:53 PM 82.9 °F 82.4 °F 57.0 °F 41% 29.77 in 10.0 mi South 16.1 mph 23.0 mph N/A   Partly Cloudy
6:53 PM 81.0 °F 80.8 °F 55.9 °F 42% 29.77 in 10.0 mi SSE 16.1 mph - N/A   Partly Cloudy
7:53 PM 78.1 °F - 55.9 °F 46% 29.78 in 10.0 mi SSE 12.7 mph - N/A   Partly Cloudy
8:53 PM 75.0 °F - 55.0 °F 50% 29.79 in 10.0 mi SSE 12.7 mph - N/A   Partly Cloudy
9:53 PM 73.0 °F - 57.0 °F 57% 29.80 in 10.0 mi South 8.1 mph - N/A   Partly Cloudy
10:53 PM 70.0 °F - 57.0 °F 63% 29.81 in 10.0 mi South 8.1 mph - N/A   Partly Cloudy
11:53 PM 70.0 °F - 57.0 °F 63% 29.81 in 10.0 mi South 12.7 mph 20.7 mph N/A   Partly Cloudy